contact:dominique.lefevre@mio.osupytheas.fr, maurice.libes@osupytheas.fr, didier.mallarino@osupytheas.fr
Project:EMSO http://www.emso-fr.org/EMSO-France
Depth: 2436.0 m
Title:EMSO Ligure Ouest : Data MII capteur MICROCAT
DateTime_Computer,Latitude,Longitude,Temperature,Conductivity,Pressure,DateTime_Instrument
DateTime_Computer,Latitude,Longitude,degC,S m-1,dbar,DateTime_Instrument
2022-08-04T00:00:13Z,42.805,6.029,13.3014,4.60063,2470.67,2022-8-04T02:02:01Z
2022-08-04T00:03:16Z,42.805,6.029,13.3013,4.60057,2470.707,2022-8-04T02:05:04Z
2022-08-04T00:06:19Z,42.805,6.029,13.3016,4.60069,2470.67,2022-8-04T02:08:07Z
2022-08-04T00:09:22Z,42.805,6.029,13.3011,4.60065,2470.67,2022-8-04T02:11:10Z
2022-08-04T00:12:25Z,42.805,6.029,13.3017,4.60054,2470.67,2022-8-04T02:14:13Z
2022-08-04T00:15:28Z,42.805,6.029,13.3016,4.60064,2470.717,2022-8-04T02:17:16Z
2022-08-04T00:18:31Z,42.805,6.029,13.3011,4.60056,2470.717,2022-8-04T02:20:19Z
2022-08-04T00:21:34Z,42.805,6.029,13.3011,4.60050,2470.707,2022-8-04T02:23:23Z
2022-08-04T00:24:37Z,42.805,6.029,13.3014,4.60057,2470.693,2022-8-04T02:26:26Z
2022-08-04T00:27:41Z,42.805,6.029,13.3011,4.60052,2470.693,2022-8-04T02:29:29Z
2022-08-04T00:30:44Z,42.805,6.029,13.3015,4.60058,2470.717,2022-8-04T02:32:32Z
2022-08-04T00:33:47Z,42.805,6.029,13.3014,4.60058,2470.67,2022-8-04T02:35:35Z
2022-08-04T00:36:50Z,42.805,6.029,13.3018,4.60062,2470.67,2022-8-04T02:38:38Z
2022-08-04T00:39:53Z,42.805,6.029,13.3015,4.60059,2470.67,2022-8-04T02:41:41Z
2022-08-04T00:42:56Z,42.805,6.029,13.3011,4.60067,2470.67,2022-8-04T02:44:44Z
2022-08-04T00:45:59Z,42.805,6.029,13.3017,4.60062,2470.624,2022-8-04T02:47:48Z
2022-08-04T00:49:02Z,42.805,6.029,13.3014,4.60056,2470.646,2022-8-04T02:50:51Z
2022-08-04T00:52:06Z,42.805,6.029,13.3013,4.60069,2470.67,2022-8-04T02:53:54Z
2022-08-04T00:55:09Z,42.805,6.029,13.3015,4.60062,2470.661,2022-8-04T02:56:57Z
2022-08-04T00:58:12Z,42.805,6.029,13.3014,4.60053,2470.646,2022-8-04T03:00:00Z
2022-08-04T01:01:15Z,42.805,6.029,13.3010,4.60057,2470.661,2022-8-04T03:03:03Z
2022-08-04T01:04:18Z,42.805,6.029,13.3016,4.60063,2470.67,2022-8-04T03:06:06Z
2022-08-04T01:07:21Z,42.805,6.029,13.3012,4.60060,2470.67,2022-8-04T03:09:09Z
2022-08-04T01:10:24Z,42.805,6.029,13.3018,4.60056,2470.661,2022-8-04T03:12:12Z
2022-08-04T01:13:27Z,42.805,6.029,13.3009,4.60057,2470.67,2022-8-04T03:15:16Z
2022-08-04T01:16:30Z,42.805,6.029,13.3018,4.60064,2470.646,2022-8-04T03:18:19Z
2022-08-04T01:19:34Z,42.805,6.029,13.3015,4.60057,2470.646,2022-8-04T03:21:22Z
2022-08-04T01:22:37Z,42.805,6.029,13.3014,4.60063,2470.684,2022-8-04T03:24:25Z
2022-08-04T01:25:40Z,42.805,6.029,13.3017,4.60067,2470.624,2022-8-04T03:27:28Z
2022-08-04T01:28:43Z,42.805,6.029,13.3014,4.60056,2470.661,2022-8-04T03:30:31Z
2022-08-04T01:31:46Z,42.805,6.029,13.3017,4.60069,2470.646,2022-8-04T03:33:34Z
2022-08-04T01:34:49Z,42.805,6.029,13.3013,4.60053,2470.661,2022-8-04T03:36:37Z
2022-08-04T01:37:52Z,42.805,6.029,13.3014,4.60062,2470.67,2022-8-04T03:39:40Z
2022-08-04T01:40:55Z,42.805,6.029,13.3014,4.60056,2470.637,2022-8-04T03:42:44Z
2022-08-04T01:43:59Z,42.805,6.029,13.3012,4.60062,2470.624,2022-8-04T03:45:47Z
2022-08-04T01:47:02Z,42.805,6.029,13.3011,4.60055,2470.646,2022-8-04T03:48:50Z
2022-08-04T01:50:05Z,42.805,6.029,13.3014,4.60068,2470.624,2022-8-04T03:51:53Z
2022-08-04T01:53:08Z,42.805,6.029,13.3015,4.60055,2470.646,2022-8-04T03:54:56Z
2022-08-04T01:56:11Z,42.805,6.029,13.3019,4.60057,2470.646,2022-8-04T03:57:59Z
2022-08-04T01:59:14Z,42.805,6.029,13.3008,4.60054,2470.637,2022-8-04T04:01:02Z
2022-08-04T02:02:17Z,42.805,6.029,13.3020,4.60057,2470.624,2022-8-04T04:04:05Z
2022-08-04T02:05:20Z,42.805,6.029,13.3015,4.60059,2470.624,2022-8-04T04:07:08Z
2022-08-04T02:08:23Z,42.805,6.029,13.3008,4.60052,2470.6,2022-8-04T04:10:12Z
2022-08-04T02:11:27Z,42.805,6.029,13.3016,4.60059,2470.646,2022-8-04T04:13:15Z
2022-08-04T02:14:30Z,42.805,6.029,13.3010,4.60058,2470.661,2022-8-04T04:16:18Z
2022-08-04T02:17:33Z,42.805,6.029,13.3008,4.60051,2470.624,2022-8-04T04:19:21Z
2022-08-04T02:20:36Z,42.805,6.029,13.3012,4.60062,2470.624,2022-8-04T04:22:24Z
2022-08-04T02:23:39Z,42.805,6.029,13.3016,4.60058,2470.661,2022-8-04T04:25:27Z
2022-08-04T02:26:42Z,42.805,6.029,13.3009,4.60053,2470.624,2022-8-04T04:28:30Z
2022-08-04T02:29:45Z,42.805,6.029,13.3014,4.60062,2470.624,2022-8-04T04:31:33Z
2022-08-04T02:32:48Z,42.805,6.029,13.3014,4.60058,2470.661,2022-8-04T04:34:37Z
2022-08-04T02:35:51Z,42.805,6.029,13.3009,4.60062,2470.637,2022-8-04T04:37:40Z
2022-08-04T02:38:55Z,42.805,6.029,13.3018,4.60061,2470.646,2022-8-04T04:40:43Z
2022-08-04T02:41:58Z,42.805,6.029,13.3015,4.60060,2470.624,2022-8-04T04:43:46Z
2022-08-04T02:45:01Z,42.805,6.029,13.3010,4.60054,2470.637,2022-8-04T04:46:49Z
2022-08-04T02:48:04Z,42.805,6.029,13.3014,4.60049,2470.6,2022-8-04T04:49:52Z
2022-08-04T02:51:07Z,42.805,6.029,13.3014,4.60059,2470.614,2022-8-04T04:52:55Z
2022-08-04T02:54:10Z,42.805,6.029,13.3009,4.60054,2470.624,2022-8-04T04:55:58Z
2022-08-04T02:57:13Z,42.805,6.029,13.3009,4.60052,2470.6,2022-8-04T04:59:02Z
2022-08-04T03:00:16Z,42.805,6.029,13.3013,4.60057,2470.624,2022-8-04T05:02:05Z
2022-08-04T03:03:19Z,42.805,6.029,13.3018,4.60061,2470.637,2022-8-04T05:05:08Z
2022-08-04T03:06:23Z,42.805,6.029,13.3015,4.60052,2470.624,2022-8-04T05:08:11Z
2022-08-04T03:09:26Z,42.805,6.029,13.3013,4.60053,2470.614,2022-8-04T05:11:14Z
2022-08-04T03:12:29Z,42.805,6.029,13.3011,4.60057,2470.6,2022-8-04T05:14:17Z
2022-08-04T03:15:32Z,42.805,6.029,13.3017,4.60057,2470.614,2022-8-04T05:17:20Z
2022-08-04T03:18:35Z,42.805,6.029,13.3014,4.60060,2470.577,2022-8-04T05:20:23Z
2022-08-04T03:21:38Z,42.805,6.029,13.3014,4.60056,2470.577,2022-8-04T05:23:26Z
2022-08-04T03:24:41Z,42.805,6.029,13.3012,4.60062,2470.637,2022-8-04T05:26:30Z
2022-08-04T03:27:44Z,42.805,6.029,13.3013,4.60053,2470.614,2022-8-04T05:29:33Z
2022-08-04T03:30:48Z,42.805,6.029,13.3012,4.60052,2470.6,2022-8-04T05:32:36Z
2022-08-04T03:33:51Z,42.805,6.029,13.3016,4.60057,2470.6,2022-8-04T05:35:39Z
2022-08-04T03:36:54Z,42.805,6.029,13.3014,4.60060,2470.6,2022-8-04T05:38:42Z
2022-08-04T03:39:57Z,42.805,6.029,13.3015,4.60057,2470.591,2022-8-04T05:41:45Z
2022-08-04T03:43:00Z,42.805,6.029,13.3012,4.60057,2470.591,2022-8-04T05:44:48Z
2022-08-04T03:46:03Z,42.805,6.029,13.3015,4.60062,2470.553,2022-8-04T05:47:51Z
2022-08-04T03:49:06Z,42.805,6.029,13.3011,4.60055,2470.577,2022-8-04T05:50:54Z
2022-08-04T03:52:09Z,42.805,6.029,13.3013,4.60064,2470.614,2022-8-04T05:53:58Z
2022-08-04T03:55:12Z,42.805,6.029,13.3008,4.60053,2470.577,2022-8-04T05:57:01Z
2022-08-04T03:58:16Z,42.805,6.029,13.3011,4.60054,2470.563,2022-8-04T06:00:04Z
2022-08-04T04:01:19Z,42.805,6.029,13.3011,4.60056,2470.591,2022-8-04T06:03:07Z
2022-08-04T04:04:22Z,42.805,6.029,13.3010,4.60051,2470.614,2022-8-04T06:06:10Z
2022-08-04T04:07:25Z,42.805,6.029,13.3013,4.60049,2470.586,2022-8-04T06:09:13Z
2022-08-04T04:10:28Z,42.805,6.029,13.3011,4.60064,2470.577,2022-8-04T06:12:16Z
2022-08-04T04:13:31Z,42.805,6.029,13.3006,4.60061,2470.6,2022-8-04T06:15:19Z
2022-08-04T04:16:34Z,42.805,6.029,13.3019,4.60054,2470.553,2022-8-04T06:18:22Z
2022-08-04T04:19:37Z,42.805,6.029,13.3011,4.60054,2470.577,2022-8-04T06:21:26Z
2022-08-04T04:22:41Z,42.805,6.029,13.3013,4.60061,2470.577,2022-8-04T06:24:29Z
2022-08-04T04:25:44Z,42.805,6.029,13.3010,4.60052,2470.591,2022-8-04T06:27:32Z
2022-08-04T04:28:47Z,42.805,6.029,13.3011,4.60059,2470.614,2022-8-04T06:30:35Z
2022-08-04T04:31:50Z,42.805,6.029,13.3012,4.60051,2470.577,2022-8-04T06:33:38Z
2022-08-04T04:34:53Z,42.805,6.029,13.3010,4.60053,2470.567,2022-8-04T06:36:41Z
2022-08-04T04:37:56Z,42.805,6.029,13.3006,4.60052,2470.553,2022-8-04T06:39:44Z
2022-08-04T04:40:59Z,42.805,6.029,13.3015,4.60049,2470.577,2022-8-04T06:42:47Z
2022-08-04T04:44:02Z,42.805,6.029,13.3013,4.60049,2470.563,2022-8-04T06:45:51Z
2022-08-04T04:47:05Z,42.805,6.029,13.3011,4.60054,2470.553,2022-8-04T06:48:54Z
2022-08-04T04:50:09Z,42.805,6.029,13.3015,4.60056,2470.577,2022-8-04T06:51:57Z
2022-08-04T04:53:12Z,42.805,6.029,13.3009,4.60057,2470.577,2022-8-04T06:55:00Z
2022-08-04T04:56:15Z,42.805,6.029,13.3011,4.60053,2470.544,2022-8-04T06:58:03Z
2022-08-04T04:59:18Z,42.805,6.029,13.3011,4.60063,2470.567,2022-8-04T07:01:06Z
2022-08-04T05:02:21Z,42.805,6.029,13.3014,4.60057,2470.591,2022-8-04T07:04:09Z
2022-08-04T05:05:24Z,42.805,6.029,13.3011,4.60056,2470.577,2022-8-04T07:07:12Z
2022-08-04T05:08:27Z,42.805,6.029,13.3018,4.60054,2470.577,2022-8-04T07:10:15Z
2022-08-04T05:11:30Z,42.805,6.029,13.3010,4.60053,2470.567,2022-8-04T07:13:19Z
2022-08-04T05:14:34Z,42.805,6.029,13.3010,4.60052,2470.544,2022-8-04T07:16:22Z
2022-08-04T05:17:37Z,42.805,6.029,13.3009,4.60052,2470.539,2022-8-04T07:19:25Z
2022-08-04T05:20:40Z,42.805,6.029,13.3014,4.60054,2470.53,2022-8-04T07:22:28Z
2022-08-04T05:23:43Z,42.805,6.029,13.3008,4.60054,2470.591,2022-8-04T07:25:31Z
2022-08-04T05:26:46Z,42.805,6.029,13.3014,4.60051,2470.553,2022-8-04T07:28:34Z
2022-08-04T05:29:49Z,42.805,6.029,13.3008,4.60057,2470.553,2022-8-04T07:31:37Z
2022-08-04T05:32:52Z,42.805,6.029,13.3016,4.60062,2470.577,2022-8-04T07:34:40Z
2022-08-04T05:35:55Z,42.805,6.029,13.3007,4.60052,2470.577,2022-8-04T07:37:44Z
2022-08-04T05:38:58Z,42.805,6.029,13.3011,4.60052,2470.567,2022-8-04T07:40:47Z
2022-08-04T05:42:02Z,42.805,6.029,13.3015,4.60064,2470.567,2022-8-04T07:43:50Z
2022-08-04T05:45:05Z,42.805,6.029,13.3011,4.60049,2470.577,2022-8-04T07:46:53Z
2022-08-04T05:48:08Z,42.805,6.029,13.3009,4.60062,2470.553,2022-8-04T07:49:56Z
2022-08-04T05:51:11Z,42.805,6.029,13.3011,4.60057,2470.567,2022-8-04T07:52:59Z
2022-08-04T05:54:14Z,42.805,6.029,13.3014,4.60054,2470.567,2022-8-04T07:56:02Z
2022-08-04T05:57:17Z,42.805,6.029,13.3012,4.60053,2470.553,2022-8-04T07:59:05Z
2022-08-04T06:00:20Z,42.805,6.029,13.3011,4.60063,2470.553,2022-8-04T08:02:08Z
2022-08-04T06:03:23Z,42.805,6.029,13.3013,4.60059,2470.553,2022-8-04T08:05:12Z
2022-08-04T06:06:26Z,42.805,6.029,13.3018,4.60062,2470.53,2022-8-04T08:08:15Z
2022-08-04T06:09:30Z,42.805,6.029,13.3014,4.60057,2470.553,2022-8-04T08:11:18Z
2022-08-04T06:12:33Z,42.805,6.029,13.3015,4.60049,2470.553,2022-8-04T08:14:21Z
2022-08-04T06:15:36Z,42.805,6.029,13.3006,4.60049,2470.544,2022-8-04T08:17:24Z
2022-08-04T06:18:39Z,42.805,6.029,13.3009,4.60049,2470.53,2022-8-04T08:20:27Z
2022-08-04T06:21:42Z,42.805,6.029,13.3006,4.60056,2470.567,2022-8-04T08:23:30Z
2022-08-04T06:24:45Z,42.805,6.029,13.3011,4.60064,2470.567,2022-8-04T08:26:33Z
2022-08-04T06:27:48Z,42.805,6.029,13.3014,4.60067,2470.553,2022-8-04T08:29:36Z
2022-08-04T06:30:51Z,42.805,6.029,13.3014,4.60059,2470.591,2022-8-04T08:32:40Z
2022-08-04T06:33:55Z,42.805,6.029,13.3013,4.60057,2470.553,2022-8-04T08:35:43Z
2022-08-04T06:36:58Z,42.805,6.029,13.3012,4.60057,2470.553,2022-8-04T08:38:46Z
2022-08-04T06:40:01Z,42.805,6.029,13.3017,4.60061,2470.553,2022-8-04T08:41:49Z
2022-08-04T06:43:04Z,42.805,6.029,13.3011,4.60053,2470.53,2022-8-04T08:44:52Z
2022-08-04T06:46:07Z,42.805,6.029,13.3012,4.60060,2470.577,2022-8-04T08:47:55Z
2022-08-04T06:49:10Z,42.805,6.029,13.3011,4.60064,2470.567,2022-8-04T08:50:58Z
2022-08-04T06:52:13Z,42.805,6.029,13.3012,4.60058,2470.586,2022-8-04T08:54:01Z
2022-08-04T06:55:16Z,42.805,6.029,13.3013,4.60057,2470.567,2022-8-04T08:57:05Z
2022-08-04T06:58:19Z,42.805,6.029,13.3015,4.60049,2470.553,2022-8-04T09:00:08Z
2022-08-04T07:01:23Z,42.805,6.029,13.3011,4.60049,2470.553,2022-8-04T09:03:11Z
2022-08-04T07:04:26Z,42.805,6.029,13.3014,4.60059,2470.577,2022-8-04T09:06:14Z
2022-08-04T07:07:29Z,42.805,6.029,13.3015,4.60062,2470.553,2022-8-04T09:09:17Z
2022-08-04T07:10:32Z,42.805,6.029,13.3010,4.60063,2470.567,2022-8-04T09:12:20Z
2022-08-04T07:13:35Z,42.805,6.029,13.3010,4.60055,2470.6,2022-8-04T09:15:23Z
2022-08-04T07:16:38Z,42.805,6.029,13.3011,4.60063,2470.567,2022-8-04T09:18:26Z
2022-08-04T07:19:41Z,42.805,6.029,13.3014,4.60052,2470.553,2022-8-04T09:21:29Z
2022-08-04T07:22:44Z,42.805,6.029,13.3014,4.60056,2470.591,2022-8-04T09:24:33Z
2022-08-04T07:25:48Z,42.805,6.029,13.3009,4.60054,2470.567,2022-8-04T09:27:36Z
2022-08-04T07:28:51Z,42.805,6.029,13.3013,4.60055,2470.591,2022-8-04T09:30:39Z
2022-08-04T07:31:54Z,42.805,6.029,13.3010,4.60053,2470.591,2022-8-04T09:33:42Z
2022-08-04T07:34:57Z,42.805,6.029,13.3008,4.60049,2470.553,2022-8-04T09:36:45Z
2022-08-04T07:38:00Z,42.805,6.029,13.3015,4.60052,2470.553,2022-8-04T09:39:48Z
2022-08-04T07:41:03Z,42.805,6.029,13.3011,4.60050,2470.577,2022-8-04T09:42:51Z
2022-08-04T07:44:06Z,42.805,6.029,13.3010,4.60059,2470.553,2022-8-04T09:45:54Z
2022-08-04T07:47:09Z,42.805,6.029,13.3012,4.60053,2470.577,2022-8-04T09:48:58Z
2022-08-04T07:50:12Z,42.805,6.029,13.3011,4.60052,2470.577,2022-8-04T09:52:01Z
2022-08-04T07:53:16Z,42.805,6.029,13.3010,4.60054,2470.553,2022-8-04T09:55:04Z
2022-08-04T07:56:19Z,42.805,6.029,13.3014,4.60054,2470.591,2022-8-04T09:58:07Z
2022-08-04T07:59:22Z,42.805,6.029,13.3021,4.60057,2470.577,2022-8-04T10:01:10Z
2022-08-04T08:02:25Z,42.805,6.029,13.3016,4.60063,2470.624,2022-8-04T10:04:13Z
2022-08-04T08:05:28Z,42.805,6.029,13.3014,4.60053,2470.6,2022-8-04T10:07:16Z
2022-08-04T08:08:31Z,42.805,6.029,13.3011,4.60056,2470.6,2022-8-04T10:10:19Z
2022-08-04T08:11:34Z,42.805,6.029,13.3012,4.60067,2470.591,2022-8-04T10:13:23Z
2022-08-04T08:14:37Z,42.805,6.029,13.3009,4.60057,2470.6,2022-8-04T10:16:26Z
2022-08-04T08:17:41Z,42.805,6.029,13.3009,4.60052,2470.577,2022-8-04T10:19:29Z
2022-08-04T08:20:44Z,42.805,6.029,13.3013,4.60059,2470.614,2022-8-04T10:22:32Z
2022-08-04T08:23:47Z,42.805,6.029,13.3014,4.60054,2470.624,2022-8-04T10:25:35Z
2022-08-04T08:26:50Z,42.805,6.029,13.3014,4.60051,2470.586,2022-8-04T10:28:38Z
2022-08-04T08:29:53Z,42.805,6.029,13.3010,4.60051,2470.577,2022-8-04T10:31:41Z
2022-08-04T08:32:56Z,42.805,6.029,13.3010,4.60052,2470.6,2022-8-04T10:34:44Z
2022-08-04T08:35:59Z,42.805,6.029,13.3009,4.60049,2470.614,2022-8-04T10:37:47Z
2022-08-04T08:39:02Z,42.805,6.029,13.3010,4.60049,2470.624,2022-8-04T10:40:51Z
2022-08-04T08:42:06Z,42.805,6.029,13.3012,4.60054,2470.624,2022-8-04T10:43:54Z
2022-08-04T08:45:09Z,42.805,6.029,13.3011,4.60055,2470.624,2022-8-04T10:46:57Z
2022-08-04T08:48:12Z,42.805,6.029,13.3013,4.60056,2470.624,2022-8-04T10:50:00Z
2022-08-04T08:51:15Z,42.805,6.029,13.3016,4.60066,2470.624,2022-8-04T10:53:03Z
2022-08-04T08:54:18Z,42.805,6.029,13.3011,4.60057,2470.624,2022-8-04T10:56:06Z
2022-08-04T08:57:21Z,42.805,6.029,13.3015,4.60060,2470.646,2022-8-04T10:59:09Z
2022-08-04T09:00:24Z,42.805,6.029,13.3012,4.60053,2470.637,2022-8-04T11:02:12Z
2022-08-04T09:03:27Z,42.805,6.029,13.3014,4.60059,2470.624,2022-8-04T11:05:16Z
2022-08-04T09:06:30Z,42.805,6.029,13.3012,4.60064,2470.61,2022-8-04T11:08:19Z
2022-08-04T09:09:34Z,42.805,6.029,13.3014,4.60052,2470.646,2022-8-04T11:11:22Z
2022-08-04T09:12:37Z,42.805,6.029,13.3010,4.60048,2470.684,2022-8-04T11:14:25Z
2022-08-04T09:15:40Z,42.805,6.029,13.3009,4.60049,2470.661,2022-8-04T11:17:28Z
2022-08-04T09:18:43Z,42.805,6.029,13.3011,4.60053,2470.646,2022-8-04T11:20:31Z
2022-08-04T09:21:46Z,42.805,6.029,13.3012,4.60053,2470.637,2022-8-04T11:23:34Z
2022-08-04T09:24:49Z,42.805,6.029,13.3011,4.60064,2470.67,2022-8-04T11:26:37Z
2022-08-04T09:27:52Z,42.805,6.029,13.3009,4.60056,2470.646,2022-8-04T11:29:41Z
2022-08-04T09:30:55Z,42.805,6.029,13.3014,4.60067,2470.661,2022-8-04T11:32:44Z
2022-08-04T09:33:59Z,42.805,6.029,13.3006,4.60074,2470.661,2022-8-04T11:35:47Z
2022-08-04T09:37:02Z,42.805,6.029,13.3014,4.60063,2470.646,2022-8-04T11:38:50Z
2022-08-04T09:40:05Z,42.805,6.029,13.3011,4.60053,2470.646,2022-8-04T11:41:53Z
2022-08-04T09:43:08Z,42.805,6.029,13.3013,4.60058,2470.646,2022-8-04T11:44:56Z
2022-08-04T09:46:11Z,42.805,6.029,13.3015,4.60080,2470.646,2022-8-04T11:47:59Z
2022-08-04T09:49:14Z,42.805,6.029,13.3014,4.60057,2470.661,2022-8-04T11:51:02Z
2022-08-04T09:52:17Z,42.805,6.029,13.3017,4.60066,2470.684,2022-8-04T11:54:06Z
2022-08-04T09:55:20Z,42.805,6.029,13.3015,4.60056,2470.656,2022-8-04T11:57:09Z
2022-08-04T09:58:23Z,42.805,6.029,13.3012,4.60054,2470.661,2022-8-04T12:00:12Z
2022-08-04T10:01:27Z,42.805,6.029,13.3007,4.60055,2470.67,2022-8-04T12:03:15Z
2022-08-04T10:04:30Z,42.805,6.029,13.3015,4.60052,2470.67,2022-8-04T12:06:18Z
2022-08-04T10:07:33Z,42.805,6.029,13.3007,4.60049,2470.646,2022-8-04T12:09:21Z
2022-08-04T10:10:36Z,42.805,6.029,13.3014,4.60057,2470.684,2022-8-04T12:12:24Z
2022-08-04T10:13:39Z,42.805,6.029,13.3013,4.60057,2470.646,2022-8-04T12:15:27Z
2022-08-04T10:16:42Z,42.805,6.029,13.3015,4.60064,2470.646,2022-8-04T12:18:30Z
2022-08-04T10:19:45Z,42.805,6.029,13.3013,4.60060,2470.684,2022-8-04T12:21:34Z
2022-08-04T10:22:48Z,42.805,6.029,13.3010,4.60049,2470.646,2022-8-04T12:24:37Z
2022-08-04T10:25:52Z,42.805,6.029,13.3011,4.60056,2470.67,2022-8-04T12:27:40Z
2022-08-04T10:28:55Z,42.805,6.029,13.3015,4.60061,2470.693,2022-8-04T12:30:43Z
2022-08-04T10:31:58Z,42.805,6.029,13.3018,4.60067,2470.67,2022-8-04T12:33:46Z
2022-08-04T10:35:01Z,42.805,6.029,13.3008,4.60051,2470.684,2022-8-04T12:36:49Z
2022-08-04T10:38:04Z,42.805,6.029,13.3013,4.60064,2470.684,2022-8-04T12:39:52Z
2022-08-04T10:41:07Z,42.805,6.029,13.3014,4.60067,2470.693,2022-8-04T12:42:55Z
2022-08-04T10:44:10Z,42.805,6.029,13.3011,4.60058,2470.684,2022-8-04T12:45:59Z
2022-08-04T10:47:13Z,42.805,6.029,13.3011,4.60052,2470.646,2022-8-04T12:49:02Z
2022-08-04T10:50:17Z,42.805,6.029,13.3015,4.60058,2470.646,2022-8-04T12:52:05Z
2022-08-04T10:53:20Z,42.805,6.029,13.3019,4.60065,2470.67,2022-8-04T12:55:08Z
2022-08-04T10:56:23Z,42.805,6.029,13.3013,4.60068,2470.67,2022-8-04T12:58:11Z
2022-08-04T10:59:26Z,42.805,6.029,13.3020,4.60067,2470.661,2022-8-04T13:01:14Z
2022-08-04T11:02:29Z,42.805,6.029,13.3012,4.60074,2470.67,2022-8-04T13:04:17Z
2022-08-04T11:05:32Z,42.805,6.029,13.3007,4.60061,2470.707,2022-8-04T13:07:20Z
2022-08-04T11:08:35Z,42.805,6.029,13.3011,4.60054,2470.693,2022-8-04T13:10:24Z
2022-08-04T11:11:38Z,42.805,6.029,13.3015,4.60059,2470.684,2022-8-04T13:13:27Z
2022-08-04T11:14:42Z,42.805,6.029,13.3013,4.60054,2470.646,2022-8-04T13:16:30Z
2022-08-04T11:17:45Z,42.805,6.029,13.3013,4.60054,2470.707,2022-8-04T13:19:33Z
2022-08-04T11:20:48Z,42.805,6.029,13.3011,4.60060,2470.707,2022-8-04T13:22:36Z
2022-08-04T11:23:51Z,42.805,6.029,13.3014,4.60061,2470.684,2022-8-04T13:25:39Z
2022-08-04T11:26:54Z,42.805,6.029,13.3017,4.60053,2470.684,2022-8-04T13:28:42Z
2022-08-04T11:29:57Z,42.805,6.029,13.3014,4.60059,2470.684,2022-8-04T13:31:45Z
2022-08-04T11:33:00Z,42.805,6.029,13.3010,4.60059,2470.67,2022-8-04T13:34:49Z
2022-08-04T11:36:03Z,42.805,6.029,13.3017,4.60067,2470.707,2022-8-04T13:37:52Z
2022-08-04T11:39:07Z,42.805,6.029,13.3020,4.60059,2470.684,2022-8-04T13:40:55Z
2022-08-04T11:42:10Z,42.805,6.029,13.3014,4.60071,2470.684,2022-8-04T13:43:58Z
2022-08-04T11:45:13Z,42.805,6.029,13.3022,4.60057,2470.67,2022-8-04T13:47:01Z
2022-08-04T11:48:16Z,42.805,6.029,13.3015,4.60070,2470.693,2022-8-04T13:50:04Z
2022-08-04T11:51:19Z,42.805,6.029,13.3013,4.60057,2470.684,2022-8-04T13:53:07Z
2022-08-04T11:54:22Z,42.805,6.029,13.3021,4.60070,2470.661,2022-8-04T13:56:10Z
2022-08-04T11:57:25Z,42.805,6.029,13.3011,4.60062,2470.684,2022-8-04T13:59:13Z
2022-08-04T12:00:28Z,42.805,6.029,13.3012,4.60057,2470.646,2022-8-04T14:02:17Z
2022-08-04T12:03:31Z,42.805,6.029,13.3011,4.60061,2470.637,2022-8-04T14:05:20Z
2022-08-04T12:06:35Z,42.805,6.029,13.3013,4.60052,2470.67,2022-8-04T14:08:23Z
2022-08-04T12:09:38Z,42.805,6.029,13.3011,4.60052,2470.646,2022-8-04T14:11:26Z
2022-08-04T12:12:41Z,42.805,6.029,13.3012,4.60058,2470.67,2022-8-04T14:14:29Z
2022-08-04T12:15:44Z,42.805,6.029,13.3014,4.60062,2470.67,2022-8-04T14:17:32Z
2022-08-04T12:18:47Z,42.805,6.029,13.3011,4.60057,2470.646,2022-8-04T14:20:35Z
2022-08-04T12:21:50Z,42.805,6.029,13.3006,4.60052,2470.67,2022-8-04T14:23:38Z
2022-08-04T12:24:53Z,42.805,6.029,13.3011,4.60054,2470.707,2022-8-04T14:26:42Z
2022-08-04T12:27:56Z,42.805,6.029,13.3012,4.60064,2470.67,2022-8-04T14:29:45Z
2022-08-04T12:31:00Z,42.805,6.029,13.3017,4.60074,2470.684,2022-8-04T14:32:48Z
2022-08-04T12:34:03Z,42.805,6.029,13.3019,4.60067,2470.624,2022-8-04T14:35:51Z
2022-08-04T12:37:06Z,42.805,6.029,13.3011,4.60052,2470.693,2022-8-04T14:38:54Z
2022-08-04T12:40:09Z,42.805,6.029,13.3011,4.60066,2470.684,2022-8-04T14:41:57Z
2022-08-04T12:43:12Z,42.805,6.029,13.3011,4.60062,2470.67,2022-8-04T14:45:00Z
2022-08-04T12:46:15Z,42.805,6.029,13.3014,4.60067,2470.67,2022-8-04T14:48:03Z
2022-08-04T12:49:18Z,42.805,6.029,13.3008,4.60054,2470.67,2022-8-04T14:51:07Z
2022-08-04T12:52:21Z,42.805,6.029,13.3014,4.60055,2470.614,2022-8-04T14:54:10Z
2022-08-04T12:55:25Z,42.805,6.029,13.3017,4.60057,2470.661,2022-8-04T14:57:13Z
2022-08-04T12:58:28Z,42.805,6.029,13.3015,4.60072,2470.67,2022-8-04T15:00:16Z
2022-08-04T13:01:31Z,42.805,6.029,13.3011,4.60055,2470.661,2022-8-04T15:03:19Z
2022-08-04T13:04:34Z,42.805,6.029,13.3015,4.60063,2470.67,2022-8-04T15:06:22Z
2022-08-04T13:07:37Z,42.805,6.029,13.3011,4.60072,2470.646,2022-8-04T15:09:25Z
2022-08-04T13:10:40Z,42.805,6.029,13.3012,4.60062,2470.67,2022-8-04T15:12:28Z
2022-08-04T13:13:43Z,42.805,6.029,13.3018,4.60068,2470.661,2022-8-04T15:15:32Z
2022-08-04T13:16:46Z,42.805,6.029,13.3019,4.60074,2470.67,2022-8-04T15:18:35Z
2022-08-04T13:19:50Z,42.805,6.029,13.3009,4.60054,2470.646,2022-8-04T15:21:38Z
2022-08-04T13:22:53Z,42.805,6.029,13.3024,4.60066,2470.637,2022-8-04T15:24:41Z
2022-08-04T13:25:56Z,42.805,6.029,13.3014,4.60057,2470.67,2022-8-04T15:27:44Z
2022-08-04T13:28:59Z,42.805,6.029,13.3011,4.60062,2470.646,2022-8-04T15:30:47Z
2022-08-04T13:32:02Z,42.805,6.029,13.3015,4.60061,2470.646,2022-8-04T15:33:50Z
2022-08-04T13:35:05Z,42.805,6.029,13.3010,4.60052,2470.67,2022-8-04T15:36:53Z
2022-08-04T13:38:08Z,42.805,6.029,13.3015,4.60062,2470.646,2022-8-04T15:39:57Z
2022-08-04T13:41:11Z,42.805,6.029,13.3014,4.60055,2470.67,2022-8-04T15:43:00Z
2022-08-04T13:44:15Z,42.805,6.029,13.3014,4.60074,2470.67,2022-8-04T15:46:03Z
2022-08-04T13:47:18Z,42.805,6.029,13.3014,4.60058,2470.67,2022-8-04T15:49:06Z
2022-08-04T13:50:21Z,42.805,6.029,13.3016,4.60063,2470.67,2022-8-04T15:52:09Z
2022-08-04T13:53:24Z,42.805,6.029,13.3013,4.60068,2470.646,2022-8-04T15:55:12Z
2022-08-04T13:56:27Z,42.805,6.029,13.3015,4.60056,2470.637,2022-8-04T15:58:15Z
2022-08-04T13:59:30Z,42.805,6.029,13.3009,4.60057,2470.624,2022-8-04T16:01:18Z
2022-08-04T14:02:33Z,42.805,6.029,13.3014,4.60057,2470.646,2022-8-04T16:04:21Z
2022-08-04T14:05:36Z,42.805,6.029,13.3013,4.60061,2470.624,2022-8-04T16:07:25Z
2022-08-04T14:08:39Z,42.805,6.029,13.3009,4.60052,2470.646,2022-8-04T16:10:28Z
2022-08-04T14:11:43Z,42.805,6.029,13.3011,4.60053,2470.637,2022-8-04T16:13:31Z
2022-08-04T14:14:46Z,42.805,6.029,13.3021,4.60057,2470.67,2022-8-04T16:16:34Z
2022-08-04T14:17:49Z,42.805,6.029,13.3010,4.60062,2470.646,2022-8-04T16:19:37Z
2022-08-04T14:20:52Z,42.805,6.029,13.3016,4.60061,2470.624,2022-8-04T16:22:40Z
2022-08-04T14:23:55Z,42.805,6.029,13.3012,4.60063,2470.624,2022-8-04T16:25:43Z
2022-08-04T14:26:58Z,42.805,6.029,13.3011,4.60064,2470.6,2022-8-04T16:28:46Z
2022-08-04T14:30:01Z,42.805,6.029,13.3011,4.60053,2470.614,2022-8-04T16:31:50Z
2022-08-04T14:33:04Z,42.805,6.029,13.3011,4.60063,2470.637,2022-8-04T16:34:53Z
2022-08-04T14:36:08Z,42.805,6.029,13.3014,4.60054,2470.624,2022-8-04T16:37:56Z
2022-08-04T14:39:11Z,42.805,6.029,13.3021,4.60069,2470.577,2022-8-04T16:40:59Z
2022-08-04T14:42:14Z,42.805,6.029,13.3014,4.60094,2470.637,2022-8-04T16:44:02Z
2022-08-04T14:45:17Z,42.805,6.029,13.3017,4.60079,2470.624,2022-8-04T16:47:05Z
2022-08-04T14:48:20Z,42.805,6.029,13.3012,4.60065,2470.624,2022-8-04T16:50:08Z
2022-08-04T14:51:23Z,42.805,6.029,13.3011,4.60069,2470.624,2022-8-04T16:53:11Z
2022-08-04T14:54:26Z,42.805,6.029,13.3014,4.60064,2470.624,2022-8-04T16:56:15Z
2022-08-04T14:57:29Z,42.805,6.029,13.3019,4.60067,2470.614,2022-8-04T16:59:18Z
2022-08-04T15:00:33Z,42.805,6.029,13.3009,4.60057,2470.6,2022-8-04T17:02:21Z
2022-08-04T15:03:36Z,42.805,6.029,13.3015,4.60072,2470.6,2022-8-04T17:05:24Z
2022-08-04T15:06:39Z,42.805,6.029,13.3011,4.60060,2470.567,2022-8-04T17:08:27Z
2022-08-04T15:09:42Z,42.805,6.029,13.3014,4.60053,2470.6,2022-8-04T17:11:30Z